Regional Weather Roundup
Issued by NWS Wakefield, VA

Home | Current Version | Previous Version | Text Only | Print | Product List | Glossary Off
Versions: 1 2 3 4 5 6 7 8 9 10 11 12 13 14 15 16 17 18 19 20 21 22 23 24 25 26 27 28 29 30 31 32 33 34 35 36 37 38 39 40 41 42 43 44 45 46 47 48 49 50

009
ASUS41 KAKQ 261215
RWRAKQ

REGIONAL WEATHER ROUNDUP
NATIONAL WEATHER SERVICE WAKEFIELD VA
800 AM EDT WED APR 26 2017

Note: "fair" indicates few or no clouds below 12,000 feet with no
significant weather and/or obstructions to visibility. * = Denotes
station may not report precipitation (e.g., rain,snow,etc.),
thunder or fog.

VAZ042-051-052>054-056-261300-
NORTHERN VIRGINIA

CITY           SKY/WX    TMP DP  RH WIND       PRES   REMARKS
WASH NATIONAL  CLOUDY    59  57  93 NW10      29.76R
DULLES         CLOUDY    56  55  97 NW8       29.76R FOG
FORT BELVOIR   CLOUDY    57  55  94 NW7       29.75R
QUANTICO       CLOUDY    59  57  93 NW7       29.77R
FREDERICKSBRG* CLOUDY    58  58 100 N3        29.76R
STAFFORD*      CLOUDY    57  57 100 NW6       29.80R
WARRENTON      CLOUDY    59  54  84 CALM      29.77R
CULPEPER*      CLOUDY    58  56  92 N6        29.78R
MANASSAS*        N/A     58  55  90 NW9       29.77R
LEESBURG*      CLOUDY    57  57 100 NW6       29.78R FOG
WINCHESTER     CLOUDY    54  54 100 W6        29.78S
FRONT ROYAL*   CLOUDY    54  54 100 CALM      29.78S
LURAY*         FOG       52  52 100 CALM      29.79R VSB<1/4
$$

VAZ048-049-060>072-079>083-261300-
CENTRAL AND SOUTH CENTRAL VIRGINIA

CITY           SKY/WX    TMP DP  RH WIND       PRES   REMARKS
RICHMOND       DRIZZLE   59  58  96 NW6       29.77R FOG
CHESTERFIELD*  CLOUDY    59  43  55 W5        29.79R
PETERSBURG*    CLOUDY    58  55  90 NW3       29.78R
HANOVER        CLOUDY    58  55  90 NW5       29.78R FOG
TAPPAHANNOCK*  CLOUDY    59  59 100 NW3       29.76R FOG
QUINTON*       CLOUDY    58  58 100 W3        29.75R
CHARLOTTSVILLE LGT RAIN  59  54  83 CALM      29.77R
GORDONSVILLE*  MOSUNNY   55  55 100 CALM      29.77R
ORANGE*        PTSUNNY   55  54  94 CALM      29.77S
LOUISA*        CLOUDY    61  57  88 CALM      29.77R
BUMPASS*       CLOUDY    57  57 100 CALM      29.77R
FARMVILLE*     SUNNY     57  57  99 CALM      29.77R
CREWE*         FAIR      59  59 100 NW3       29.79R
FORT PICKETT*  FAIR      58  55  88 W9        29.78R
CHASE CITY*    FAIR      57  55  95 CALM      29.79R
CLARKSVILLE*   FAIR      55  55 100 CALM      29.79R
SOUTH HILL*    SUNNY     59  56  91 CALM      29.84R
LAWRENCEVILLE* FAIR      60  56  87 W3        29.78R
EMPORIA*       CLOUDY    59  55  88 SW3       29.80R
$$

VAZ088>098-261300-
SOUTHEAST VIRGINIA

CITY           SKY/WX    TMP DP  RH WIND       PRES   REMARKS
NORFOLK        CLOUDY    62  59  90 W7        29.75R
VIRGINIA BEACH CLOUDY    60  58  92 W7        29.74R
NORFOLK NAVAL  PTSUNNY   62  58  86 W9        29.76R
WEST POINT*    CLOUDY    59  58  97 W6        29.76R
SALUDA*        CLOUDY    59  59 100 W3        29.73R
NEWPORT NEWS   CLOUDY    60  58  92 NW7       29.75R
LANGLEY AFB    CLOUDY    60  60  99 W8        29.75R
FORT EUSTIS    CLOUDY    60  58  93 NW8       29.73R
WILLIAMSBURG*  CLOUDY    61  61 100 CALM      29.76R
HR EXEC AP*    CLOUDY    61  57  88 NW6       29.75R
FRANKLIN*      CLOUDY    59  58  96 W7        29.78R FOG
US460-WAKEFLD  CLOUDY    60  59  96 W3        29.77R FOG
$$

VAZ020-022-025-037-045-261300-
WEST CENTRAL AND SOUTHWEST VIRGINIA

CITY           SKY/WX    TMP DP  RH WIND       PRES   REMARKS
STAUNTON*      PTSUNNY   50  50 100 CALM      29.81R FOG
WAYNESBORO*    MOSUNNY   52  52 100 CALM      29.79R
HOT SPRINGS VA FOG       52  50  93 W10       29.84R VSB 1/4
LYNCHBURG      NOT AVBL
DANVILLE       MOSUNNY   56  56 100 SW3       29.79S
SOUTH BOSTON*  FAIR      58  57  96 CALM      29.79R
MARTINSVILLE   SUNNY     55  55  97 CALM      29.83R
ROANOKE        CLOUDY    56  54  93 CALM      29.83R
BLACKSBURG     FOG       55  54  97 CALM      29.86R VSB 1/4
DUBLIN*        FOG       53  51  93 CALM      29.85R VSB<1/4
MARION*        FOG       52  51  95 CALM      29.89R VSB<1/4
HILLSVILLE*    FOG       52  52 100 CALM      29.84R VSB<1/4
RICHLANDS*     FAIR      55  33  42 CALM      29.87R
WISE*            N/A     55  55 100 CALM      29.88R
ABINGDON*      FOG       52  52 100 CALM      29.86R VSB 1/2
$$

MDZ021>025-VAZ099-100-261300-
SOUTHERN MARYLAND AND THE DELMARVA PENINSULA

CITY           SKY/WX    TMP DP  RH WIND       PRES   REMARKS
PATUXENT RIVER CLOUDY    58  58 100 NW8       29.72R
BAY BRIDGE APT FOG       57  55  94 N6        29.73R VSB 1
LEONARDTOWN    CLOUDY    55  54  94 W6        29.75R
DOVER          CLOUDY    57  57 100 N9        29.70R FOG
GEORGETOWN     FOG      N/A N/A N/A N8        29.71R VSB 1/2
EASTON         DRIZZLE   57  55  94 N6        29.74R FOG
CAMBRIDGE      CLOUDY    57  57 100 NW8       29.72R FOG
SALISBURY      FOG       57  57 100 NW7       29.70R VSB 1
OCEAN CITY     FOG       57  56  96 NW5       29.69R VSB 3/4
WALLOPS ISLAND CLOUDY    57  57 100 NW9       29.70R
ACCOMACK*      CLOUDY    58  55  88 NW14      29.71R
$$

NCZ012>017-030>032-261300-
NORTH CENTRAL AND EASTERN NORTH CAROLINA

CITY           SKY/WX    TMP DP  RH WIND       PRES   REMARKS
ROANOKE RAPIDS CLOUDY    59  57  94 CALM      29.79R
RALEIGH        MOSUNNY   60  57  89 W5        29.81R
ELIZABETH CITY CLOUDY    61  61 100 W8        29.77R
AHOSKIE*       DRIZZLE   59  58  96 CALM      29.79R
EDENTON*       NOT AVBL
CURRITUCK*     CLOUDY    62  62 100 W5        29.77R FOG
KILL DEVIL HLS CLOUDY    64  64 100 CALM      29.76R
MANTEO         CLOUDY    64  62  94 NW8       29.77R
CAPE HATTERAS  CLOUDY    66  62  87 W8        29.78R FOG
TARBORO*       NOT AVBL
GOLDSBORO      PTSUNNY   63  63 100 W5        29.80R
WASHINGTON     CLOUDY    62  59  91 W3        29.79R
GREENVILLE     CLOUDY    63  61  94 W5        29.82R
NEW BERN       CLOUDY    62  61  96 W5        29.81R
WILMINGTON     SUNNY     63  59  87 W6        29.82R
$$

VAZ048-261300-
ELSEWHERE

CITY           SKY/WX    TMP DP  RH WIND       PRES   REMARKS
HARRISBURG PA  CLOUDY    56  56 100 N3        29.75R
BALTIMORE      CLOUDY    58  57  97 NW7       29.73R
ANNAPOLIS      CLOUDY    59  57  93 NW6       29.73R
ANDREWS AFB    CLOUDY    57  56  96 NW7       29.74R
PHILADELPHIA   CLOUDY    57  55  93 NE12      29.74R
HENDERSON NC   PTSUNNY   55  54  95 CALM      29.79S
GREENSBORO     CLOUDY    58  58 100 S6        29.81R
ROCKY MOUNT    CLOUDY    60  57  89 NW6       29.80R
$$

VAZ100-261300-
MARINE

STATION/POSITION TIME  TEMP    WIND        PRES    WAVE   SWELL
                       AIR SEA DIR/SP/G            HT/PER HT/PER
                 (UTC) (F)     (DEG/KT/KT) (MB)    (FT/S) (FT/S)
CAPE MAY NJ      1148   56 55   50/  6/ 10 1005.2R
LEWES DE         1142   54 55   90/ 13/ 15 1005.4R
15NM E FENWICK I 1150   53 51   30/  4/  6 1005.7R   7/ 9   7/ 9
OCEAN-CITY-INLET 1142   55 53  350/  2/  2 1005.5R
WACHAPREAGUE VA  1148   58 59  270/  4/ 12 1005.5R
THOMAS POINT MD  1200   57 57  350/  9/ 10   N/A
GOOSES REEF MD   1200   57 53  320/ 10/ 12 1007.5    1/ 2
COVE POINT MD    1148   57     340/  9/ 13 1007.1R
SOLOMONS ISLAND  1142   57 60  310/  7/ 10   N/A
BISHOPS HEAD MD  1148   57 60  330/  5/  8 1006.5R
PINEY POINT MD   1142          340/ 10/ 11   N/A
POTOMAC MD       1200   59 60  320/ 10/ 12 1005.9    1/ 2
CAMBRIDGE MD     1142   58 62                N/A
LEWISETTA VA     1148   59 61  320/  6/  7 1006.3R
RAPPAHANNOCK LGT 1142          300/ 13/ 14 1007.1R
STINGRAY PT      1150   59     340/ 10/ 12 1006.8R
YORK RVR RNG VA  1148   60     310/  9/ 11 1006.4R
YORKTOWN VA      1148   59 63  290/  8/ 10 1006.8R
JAMESTOWN VA     1200   60 66  290/ 10/ 12   N/A     0
DOMINION TERM VA 1148   61     300/ 12/ 13 1007.2R
KIPTOPEKE VA     1142      60  310/ 12/ 15   N/A
CHES BAY BRIDGE  1148   60 61  310/ 12/ 14 1007.0R
CAPE HENRY VA    1148   60     270/  8/ 12   N/A
WILLOUBY STN VA  1148   60     300/ 10/ 11 1008.2R
S CRANEY ISL VA  1148   60     280/  7/ 11 1007.0R
CAPE HENRY BUOY  1142      56                N/A     5/ 9   2/11
1ST LANDING BUOY 1200   60 60              1007.3    3/ 5
CAPE CHARLES BUO 1121      56                N/A     5/ 9   2/11
64NM E OF VA BCH 1150   56 54  250/  6/  8 1007.2R   7/10   7/10
DUCK PIER NC     1148   63 59  290/  9/ 13 1007.1R
44100 DUCK FRF   1135      56                N/A     5/ 9   2/11
44056 DUCK FRF   1130      60                N/A     5/10   2/11
OREGON INLET NC  1142   64 64  270/  7/  9 1007.4R
HATTERAS NC      1142   65 68  240/  9/ 12 1007.8R
DIAMOND SHLS NC  1150   69 77  270/ 14/ 17 1007.9R   7/10   5/10
CAPE LOOKOUT NC  1200   63     290/ 12/ 13 1008.8R
$$




USA.gov is the U.S. government's official web portal to all federal, state and local government web resources and services.